Waupaca, WI

2:51 AM CDT on June 29, 2017 (GMT -0500)
Waupaca Municipal

Weather History for KPCZ - April, 2013

Change the Weather History Date:

Saturday, April 27, 2013

  Actual Average Record
Temperature  
Mean Temperature 60 °F -  
Max Temperature 71 °F 64 °F 86 °F (1990)
Min Temperature 48 °F 40 °F 27 °F (1958)
Degree Days  
Heating Degree Days 4    
Growing Degree Days 10 (Base 50)    
Moisture  
Dew Point 44 °F    
Average Humidity 56    
Maximum Humidity 82    
Minimum Humidity 35    
Precipitation  
Precipitation 0.00 in - - ()
Sea Level Pressure  
Sea Level Pressure 30.12 in    
Wind  
Wind Speed 7 mph (South)    
Max Wind Speed 15 mph    
Max Gust Speed 24 mph    
Visibility 10 miles    
Events      
Averages and records for this station are not official NWS values.
T = Trace of Precipitation, MM = Missing Value Source: NWS Daily Summary

Daily Weather History Graph

Daily Weather History Graph

Search for Another Location

Airport or City:

Trip Planner

Search our weather history database for the weather conditions in past years. The results will help you decide how hot, cold, wet, or windy it might be!

Date:

Astronomy

Apr. 27, 2013 Rise Set
Actual Time 5:52 AM CDT 7:55 PM CDT
Civil Twilight 5:21 AM CDT 8:27 PM CDT
Nautical Twilight 4:42 AM CDT 9:06 PM CDT
Astronomical Twilight 3:59 AM CDT 9:48 PM CDT
Moon 10:28 PM CDT (4/27) 7:07 AM CDT (4/27)
Length of Visible Light 15h 06m
Length of Day
14h 03m
Waning Gibbous, 95% of the Moon is Illuminated
Apr 27
Waning Gibbous
May 2
Last Quarter
May 9
New
May 17
First Quarter
May 24
Full

Hourly Weather History & Observations

Time (CDT) Temp. Dew Point Humidity Pressure Visibility Wind Dir Wind Speed Gust Speed Precip Events Conditions
12:15 AM 57.2 °F 42.8 °F 59% 30.18 in 10.0 mi SW 6.9 mph - N/A   Mostly Cloudy
12:35 AM 57.2 °F 42.8 °F 59% 30.18 in 10.0 mi SW 6.9 mph - N/A   Mostly Cloudy
12:55 AM 55.4 °F 42.8 °F 63% 30.18 in 10.0 mi SW 5.8 mph - N/A   Scattered Clouds
1:15 AM 55.4 °F 42.8 °F 63% 30.18 in 10.0 mi SSW 6.9 mph - N/A   Scattered Clouds
1:35 AM 55.4 °F 42.8 °F 63% 30.18 in 10.0 mi SW 6.9 mph - N/A   Mostly Cloudy
1:55 AM 55.4 °F 42.8 °F 63% 30.18 in 10.0 mi SSW 5.8 mph - N/A   Overcast
2:15 AM 55.4 °F 42.8 °F 63% 30.18 in 10.0 mi SW 10.4 mph - N/A   Overcast
2:35 AM 55.4 °F 42.8 °F 63% 30.17 in 10.0 mi SSW 8.1 mph - N/A   Overcast
2:55 AM 55.4 °F 42.8 °F 63% 30.17 in 10.0 mi SSW 8.1 mph - N/A   Overcast
3:15 AM 53.6 °F 44.6 °F 72% 30.17 in 10.0 mi SSW 6.9 mph - N/A   Overcast
3:35 AM 53.6 °F 44.6 °F 72% 30.17 in 10.0 mi SSW 5.8 mph - N/A   Mostly Cloudy
3:55 AM 51.8 °F 42.8 °F 71% 30.18 in 10.0 mi South 5.8 mph - N/A   Scattered Clouds
4:15 AM 51.8 °F 42.8 °F 71% 30.18 in 10.0 mi South 4.6 mph - N/A   Clear
4:35 AM 50.0 °F 42.8 °F 76% 30.17 in 10.0 mi South 4.6 mph - N/A   Clear
4:55 AM 50.0 °F 42.8 °F 76% 30.17 in 10.0 mi South 5.8 mph - N/A   Clear
5:15 AM 50.0 °F 42.8 °F 76% 30.17 in 10.0 mi SSW 5.8 mph - N/A   Clear
6:35 AM 50.0 °F 44.6 °F 82% 30.18 in 10.0 mi SSW 4.6 mph - N/A   Clear
6:55 AM 51.8 °F 44.6 °F 76% 30.18 in 10.0 mi SSW 5.8 mph - N/A   Clear
7:15 AM 51.8 °F 44.6 °F 76% 30.18 in 10.0 mi SSW 6.9 mph - N/A   Clear
7:35 AM 53.6 °F 44.6 °F 72% 30.18 in 10.0 mi SSW 8.1 mph - N/A   Clear
7:55 AM 53.6 °F 46.4 °F 77% 30.18 in 10.0 mi SSW 5.8 mph - N/A   Clear
8:15 AM 55.4 °F 46.4 °F 72% 30.18 in 10.0 mi SW 6.9 mph - N/A   Clear
8:35 AM 57.2 °F 46.4 °F 67% 30.18 in 10.0 mi SW 6.9 mph - N/A   Clear
8:55 AM 59.0 °F 46.4 °F 63% 30.18 in 10.0 mi SSW 5.8 mph - N/A   Clear
9:15 AM 60.8 °F 46.4 °F 59% 30.18 in 10.0 mi SSW 6.9 mph - N/A   Clear
9:35 AM 60.8 °F 46.4 °F 59% 30.18 in 10.0 mi SSW 4.6 mph - N/A   Clear
9:55 AM 62.6 °F 46.4 °F 55% 30.17 in 10.0 mi SSW 5.8 mph - N/A   Clear
10:15 AM 62.6 °F 46.4 °F 55% 30.17 in 10.0 mi SW 8.1 mph - N/A   Clear
10:55 AM 64.4 °F 44.6 °F 49% 30.16 in 10.0 mi SW 8.1 mph - N/A   Clear
11:15 AM 68.0 °F 46.4 °F 46% 30.16 in 10.0 mi South 6.9 mph - N/A   Scattered Clouds
11:35 AM 68.0 °F 44.6 °F 43% 30.16 in 10.0 mi South 4.6 mph - N/A   Scattered Clouds
11:55 AM 69.8 °F 44.6 °F 40% 30.15 in 10.0 mi SSE 5.8 mph - N/A   Scattered Clouds
12:15 PM 69.8 °F 44.6 °F 40% 30.14 in 10.0 mi SSE 8.1 mph - N/A   Mostly Cloudy
12:35 PM 69.8 °F 44.6 °F 40% 30.14 in 10.0 mi SSE 8.1 mph - N/A   Scattered Clouds
12:55 PM 71.6 °F 42.8 °F 35% 30.13 in 10.0 mi SSE 8.1 mph - N/A   Scattered Clouds
1:15 PM 71.6 °F 42.8 °F 35% 30.12 in 10.0 mi South 5.8 mph - N/A   Clear
1:35 PM 71.6 °F 42.8 °F 35% 30.11 in 10.0 mi SSW 8.1 mph - N/A   Scattered Clouds
1:55 PM 71.6 °F 42.8 °F 35% 30.11 in 10.0 mi South 12.7 mph - N/A   Scattered Clouds
2:15 PM 71.6 °F 42.8 °F 35% 30.10 in 10.0 mi South 12.7 mph 18.4 mph N/A   Scattered Clouds
2:35 PM 71.6 °F 42.8 °F 35% 30.10 in 10.0 mi SSE 11.5 mph 17.3 mph N/A   Clear
2:55 PM 69.8 °F 42.8 °F 38% 30.10 in 10.0 mi SSE 12.7 mph 19.6 mph N/A   Scattered Clouds
3:15 PM 71.6 °F 42.8 °F 35% 30.09 in 10.0 mi South 13.8 mph 20.7 mph N/A   Scattered Clouds
3:35 PM 71.6 °F 42.8 °F 35% 30.08 in 10.0 mi SSE 13.8 mph 24.2 mph N/A   Clear
3:55 PM 71.6 °F 42.8 °F 35% 30.08 in 10.0 mi South 13.8 mph 20.7 mph N/A   Clear
4:15 PM 69.8 °F 44.6 °F 40% 30.07 in 10.0 mi South 13.8 mph - N/A   Clear
4:35 PM 69.8 °F 42.8 °F 38% 30.06 in 10.0 mi South 15.0 mph 19.6 mph N/A   Clear
4:55 PM 69.8 °F 42.8 °F 38% 30.06 in 10.0 mi South 12.7 mph - N/A   Clear
5:15 PM 69.8 °F 42.8 °F 38% 30.05 in 10.0 mi South 13.8 mph 20.7 mph N/A   Clear
5:35 PM 68.0 °F 42.8 °F 40% 30.05 in 10.0 mi SSE 13.8 mph 19.6 mph N/A   Clear
5:55 PM 68.0 °F 42.8 °F 40% 30.05 in 10.0 mi South 13.8 mph - N/A   Clear
6:15 PM 68.0 °F 42.8 °F 40% 30.04 in 10.0 mi South 12.7 mph - N/A   Clear
6:35 PM 68.0 °F 42.8 °F 40% 30.03 in 10.0 mi SSE 11.5 mph - N/A   Clear
6:55 PM 64.4 °F 42.8 °F 45% 30.03 in 10.0 mi South 10.4 mph - N/A   Clear
7:15 PM 64.4 °F 42.8 °F 45% 30.03 in 10.0 mi South 8.1 mph - N/A   Clear
7:35 PM 62.6 °F 42.8 °F 48% 30.03 in 10.0 mi South 6.9 mph - N/A   Clear
7:55 PM 62.6 °F 42.8 °F 48% 30.03 in 10.0 mi South 5.8 mph - N/A   Clear
8:15 PM 59.0 °F 42.8 °F 55% 30.03 in 10.0 mi South 4.6 mph - N/A   Clear
8:35 PM 59.0 °F 42.8 °F 55% 30.04 in 10.0 mi SSE 5.8 mph - N/A   Clear
8:55 PM 57.2 °F 42.8 °F 59% 30.04 in 10.0 mi South 4.6 mph - N/A   Clear
9:15 PM 55.4 °F 42.8 °F 63% 30.04 in 10.0 mi South 4.6 mph - N/A   Clear
9:55 PM 55.4 °F 42.8 °F 63% 30.03 in 10.0 mi Calm Calm - N/A   Clear
10:15 PM 53.6 °F 42.8 °F 67% 30.03 in 10.0 mi Calm Calm - N/A   Clear
10:35 PM 53.6 °F 42.8 °F 67% 30.03 in 10.0 mi Calm Calm - N/A   Clear
10:55 PM 51.8 °F 42.8 °F 71% 30.03 in 10.0 mi Calm Calm - N/A   Clear
11:15 PM 51.8 °F 42.8 °F 71% 30.02 in 10.0 mi Calm Calm - N/A   Clear
11:35 PM 51.8 °F 42.8 °F 71% 30.02 in 10.0 mi Calm Calm - N/A   Clear
11:55 PM 48.2 °F 42.8 °F 82% 30.02 in 10.0 mi East 3.5 mph - N/A   Clear